Powrót do katalogu

COSMOS 1085

AktywnyMilitariaLEO
NORAD 11300·PAYLOAD·🇷🇺 Russia

Wystrzelony Mar 15, 1979 z Plesetsk Cosmodrome

Loading…

Następne Przeloty (najbliższe 24 godziny)

TLE

ŚwieżeSource: Space-Track

Epoka: Sep 14, 2026, 22:24 UTC

1 11300U 79024E   26257.93373016 -.00000026  00000-0 -72314-4 0  9992
2 11300  74.0320  60.1349 0024893 328.5642 105.4389 12.45294877159466

Śledź COSMOS 1085 w czasie rzeczywistym z AllMySat

Download on the App Store